Regional Weather Roundup
Issued by NWS

Home | Current Version | Previous Version | Text Only | Print | Product List | Glossary On
Versions: 1 2 3 4 5 6 7 8 9 10 11 12 13 14 15 16 17 18 19 20 21 22 23 24 25 26 27
000
ASUS45 KREV 091910
RWRNV
NEVADA REGIONAL WEATHER ROUNDUP
NATIONAL WEATHER SERVICE RENO NV
1100 AM PST FRI DEC 09 2016

NOTE: "FAIR" INDICATES FEW OR NO CLOUDS BELOW 12,000 FEET WITH NO
SIGNIFICANT WEATHER AND/OR OBSTRUCTIONS TO VISIBILITY.

NVZ001-003-004-092000-
WESTERN NEVADA

CITY           SKY/WX    TMP DP  RH WIND       PRES   REMARKS
RENO           PTSUNNY   58  35  42 N10       30.16F
CARSON CITY    PTSUNNY   57  32  38 SW13G18   30.20S
MINDEN         PTSUNNY   57  34  41 SW10G17   30.20S
PYRAMID LAKE     N/A     57 N/A N/A SW5         N/A
FALLON         PTSUNNY   52  21  29 S18       30.17F
LOVELOCK       SUNNY     44  31  60 CALM      30.18F
HAWTHORNE        N/A    N/A N/A N/A MISG        N/A
$$

NVZ002-CAZ072-073-092000-
NORTHERN AND CENTRAL SIERRA

CITY           SKY/WX    TMP DP  RH WIND       PRES   REMARKS
S. LAKE TAHOE  PTSUNNY   45  34  65 S10G20    30.24F
TRUCKEE        PTSUNNY   46  36  66 S10G18    30.24S
SQUAW VLY 8000   N/A     32  32 100 SW15        N/A
SUSANVILLE     CLOUDY    52  37  58 W12G17    30.16S
MAMMOTH LAKES  FAIR      52  23  32 CALM      30.27F
BRIDGEPORT       N/A     48  29  47 S15G26    30.24R
$$

NVZ030-031-036-092000-
NORTHERN NEVADA

CITY           SKY/WX    TMP DP  RH WIND       PRES   REMARKS
ELKO           CLOUDY    40  34  79 NW5       30.19F
WINNEMUCCA     PTSUNNY   46  31  55 S8        30.15F
WENDOVER       PTSUNNY   28  19  69 CALM      30.22F
$$

NVZ035-037-092000-
CENTRAL NEVADA

CITY           SKY/WX    TMP DP  RH WIND       PRES   REMARKS
ELY            CLOUDY    37  15  40 NE3       30.26F
EUREKA           N/A     37  19  48 SW9       30.22F
$$

NVZ013-014-092000-
SOUTH CENTRAL NEVADA

CITY           SKY/WX    TMP DP  RH WIND       PRES   REMARKS
TONOPAH        CLOUDY    38  25  59 CALM      30.29F
$$

NVZ017-020-022-092000-
SOUTHERN NEVADA

CITY           SKY/WX    TMP DP  RH WIND       PRES   REMARKS
LAS VEGAS      CLOUDY    52  10  18 CALM      30.29F
N. LAS VEGAS   CLOUDY    51  13  21 CALM      30.30F
NELLIS AFB     PTSUNNY   49  12  22 NW2       30.30F
HENDERSON      CLOUDY    51  11  20 CALM      30.31F
MERCURY        CLOUDY    48  10  21 E12       30.27F
$$




USA.gov is the U.S. government's official web portal to all federal, state and local government web resources and services.